{"data":{"norad_id":52642,"intl_designator":"2022-052AW","name":"STARLINK-3971","alt_names":[],"object_type":"PAYLOAD","status":"ACTIVE","operator":null,"country":"US","launch_date":"2022-05-14","launch_site_code":"AFETR","launch_vehicle":null,"mission":null,"orbit_class":"UNKNOWN","rcs_meters":null,"size_class":null,"mass_kg":null,"dimensions":null,"purposes":["comms"],"wikipedia_slug":null,"has_3d_model":false,"image_url":null,"decayed_at":null,"tle_current":{"epoch":"2026-05-24T18:46:22.569888Z","epoch_age_seconds":90036,"freshness":"FRESH","line1":"1 52642U 22052AW  26144.78220567  .00000119  00000+0  25539-4 0  9992","line2":"2 52642  53.2153 277.5273 0001144  94.0139 266.0984 15.08837253222619","mean_motion":15.08837253,"eccentricity":0.0001144,"inclination_deg":53.2153,"raan_deg":277.5273,"arg_perigee_deg":94.0139,"mean_anomaly_deg":266.0984,"bstar":2.5539e-5,"rev_number":22261,"period_min":95.437728432067,"perigee_km":538.96037897983,"apogee_km":540.54319193394,"semimajor_km":6917.8887854569,"source":"CELESTRAK","updated_at":"2026-05-25T13:38:17.207062Z"}}}